Blattenbach Aussen Messungen

Zurück zum Überblick

Zeitpunkt Temperatur Temperatur Kabelsensor Luftfeuchte
24.02.2019 16:44:08 9,9 C 6,5 C 54,0%
24.02.2019 16:37:10 10,0 C 6,4 C 54,0%
24.02.2019 16:30:11 10,2 C 6,4 C 54,0%
24.02.2019 16:23:08 10,2 C 6,3 C 54,0%
24.02.2019 16:16:09 10,1 C 6,2 C 55,0%
24.02.2019 16:09:10 9,8 C 6,1 C 55,0%
24.02.2019 16:02:08 9,9 C 6,1 C 55,0%
24.02.2019 15:55:12 9,8 C 6,0 C 55,0%
24.02.2019 15:48:11 9,9 C 6,0 C 55,0%
24.02.2019 15:41:11 10,0 C 6,0 C 55,0%
24.02.2019 15:34:08 10,1 C 5,9 C 55,0%
24.02.2019 15:27:10 9,9 C 5,9 C 56,0%
24.02.2019 15:20:09 9,4 C 5,8 C 56,0%
24.02.2019 15:13:10 8,9 C 5,7 C 57,0%
24.02.2019 15:06:09 8,7 C 5,7 C 58,0%
24.02.2019 14:59:10 8,6 C 5,7 C 57,0%
24.02.2019 14:52:11 8,5 C 5,7 C 57,0%
24.02.2019 14:45:12 8,6 C 5,6 C 57,0%
24.02.2019 14:38:05 8,6 C 5,6 C 57,0%
24.02.2019 14:31:09 8,6 C 5,6 C 58,0%
24.02.2019 14:24:11 8,5 C 5,6 C 58,0%
24.02.2019 14:17:11 8,4 C 5,5 C 58,0%
24.02.2019 14:10:08 8,1 C 5,5 C 58,0%
24.02.2019 14:03:07 7,9 C 5,5 C 59,0%
24.02.2019 13:56:10 7,8 C 5,4 C 59,0%
24.02.2019 13:49:09 7,6 C 5,4 C 59,0%
24.02.2019 13:42:11 7,5 C 5,4 C 59,0%
24.02.2019 13:35:09 7,3 C 5,4 C 60,0%
24.02.2019 13:28:13 7,0 C 5,4 C 60,0%
24.02.2019 13:21:10 6,7 C 5,4 C 60,0%
24.02.2019 13:14:09 6,6 C 5,4 C 60,0%
24.02.2019 13:07:09 6,5 C 5,3 C 61,0%
24.02.2019 13:00:11 6,3 C 5,3 C 62,0%
24.02.2019 12:53:08 6,0 C 5,3 C 62,0%
24.02.2019 12:46:11 5,8 C 5,3 C 62,0%
24.02.2019 12:39:08 5,7 C 5,3 C 62,0%
24.02.2019 12:32:11 5,6 C 5,3 C 62,0%
24.02.2019 12:25:09 5,5 C 5,3 C 63,0%
24.02.2019 12:18:11 5,3 C 5,3 C 63,0%
24.02.2019 12:11:08 5,2 C 5,3 C 63,0%
24.02.2019 12:04:12 5,1 C 5,4 C 64,0%
24.02.2019 11:57:09 5,0 C 5,4 C 63,0%
24.02.2019 11:50:08 4,8 C 5,4 C 64,0%
24.02.2019 11:43:09 4,7 C 5,4 C 64,0%
24.02.2019 11:36:10 4,5 C 5,4 C 64,0%
24.02.2019 11:29:11 4,3 C 5,4 C 65,0%
24.02.2019 11:22:12 4,1 C 5,3 C 66,0%
24.02.2019 11:15:09 3,9 C 5,2 C 66,0%
24.02.2019 11:08:09 3,7 C 5,3 C 66,0%
24.02.2019 11:01:09 3,6 C 5,3 C 66,0%